Location: Darmstadt
(49.8706°N, 8.6494°E)
Time: 05:46:46
(UTC+01:00)

Cosmos 2058 - Pass Details

Date: 31 October 2020
Orbit: 562 x 583 km, 82.5° (Epoch: 03 December)

Event Time Altitude Azimuth Distance (km) Brightness Sun altitude
Rises 18:34:02 0° 349° (N) 2,768 6.5 -15.0°
Reaches altitude 10° 18:36:13 10° 348° (NNW) 1,867 5.6 -15.3°
Maximum altitude 18:40:20 83° 262° (W) 575 2.9 -16.0°
Drops below altitude 10° 18:44:25 10° 174° (S) 1,856 5.5 -16.7°
Sets 18:46:35 0° 174° (S) 2,750 6.4 -17.0°
